| time (UTC) | temp F | wind direction | speed MPH | gust MPH | rain 1hr in | rain 24hr in | rain mn in | humidity % | barometer mb |
| 20260510222442 | 92 | 103 | 4.0 | 10.0 | 0.00 | 0.00 | 0.00 | 50 | 1011.3 |
| 20260510221942 | 92 | 109 | 4.0 | 10.0 | 0.00 | 0.00 | 0.00 | 50 | 1011.5 |
| 20260510221441 | 93 | 145 | 4.0 | 10.0 | 0.00 | 0.00 | 0.00 | 50 | 1011.7 |
| 20260510220940 | 92 | 78 | 3.0 | 10.0 | 0.00 | 0.00 | 0.00 | 51 | 1011.6 |
| 20260510220440 | 92 | 105 | 3.0 | 10.0 | 0.00 | 0.00 | 0.00 | 50 | 1011.7 |
| 20260510215936 | 92 | 123 | 4.0 | 12.0 | 0.00 | 0.00 | 0.00 | 50 | 1012.0 |
| 20260510215440 | 92 | 114 | 4.0 | 10.0 | 0.00 | 0.00 | 0.00 | 50 | 1012.1 |
| 20260510215436 | 92 | 110 | 4.0 | 12.0 | 0.00 | 0.00 | 0.00 | 49 | 1012.1 |
| 20260510214432 | 92 | 53 | 3.0 | 10.0 | 0.00 | 0.00 | 0.00 | 51 | 1012.2 |
| 20260510213936 | 92 | 102 | 4.0 | 11.0 | 0.00 | 0.00 | 0.00 | 51 | 1012.3 |
| 20260510213932 | 92 | 110 | 4.0 | 10.0 | 0.00 | 0.00 | 0.00 | 50 | 1012.1 |
| 20260510212930 | 91 | 119 | 4.0 | 11.0 | 0.00 | 0.00 | 0.00 | 52 | 1012.3 |
| 20260510212429 | 92 | 139 | 4.0 | 10.0 | 0.00 | 0.00 | 0.00 | 51 | 1012.3 |
| 20260510211928 | 92 | 59 | 4.0 | 10.0 | 0.00 | 0.00 | 0.00 | 51 | 1012.4 |
| 20260510211427 | 92 | 111 | 4.0 | 10.0 | 0.00 | 0.00 | 0.00 | 51 | 1012.5 |
| 20260510210924 | 92 | 133 | 4.0 | 11.0 | 0.00 | 0.00 | 0.00 | 52 | 1012.5 |
| 20260510210424 | 91 | 103 | 5.0 | 13.0 | 0.00 | 0.00 | 0.00 | 51 | 1012.4 |
| 20260510205925 | 91 | 163 | 5.0 | 13.0 | 0.00 | 0.00 | 0.00 | 51 | 1012.5 |
| 20260510205423 | 92 | 136 | 4.0 | 10.0 | 0.00 | 0.00 | 0.00 | 51 | 1012.5 |
| 20260510204920 | 92 | 132 | 5.0 | 12.0 | 0.00 | 0.00 | 0.00 | 51 | 1012.6 |
| 20260510204421 | 92 | 111 | 5.0 | 12.0 | 0.00 | 0.00 | 0.00 | 50 | 1012.5 |
| 20260510203920 | 92 | 110 | 4.0 | 11.0 | 0.00 | 0.00 | 0.00 | 52 | 1012.5 |
| 20260510203421 | 92 | 78 | 4.0 | 11.0 | 0.00 | 0.00 | 0.00 | 52 | 1012.5 |
| 20260510202920 | 92 | 111 | 3.0 | 10.0 | 0.00 | 0.00 | 0.00 | 52 | 1012.5 |
| 20260510202421 | 92 | 107 | 3.0 | 10.0 | 0.00 | 0.00 | 0.00 | 49 | 1012.5 |
| 20260510201920 | 92 | 109 | 4.0 | 11.0 | 0.00 | 0.00 | 0.00 | 51 | 1012.6 |
| 20260510201420 | 92 | 153 | 4.0 | 11.0 | 0.00 | 0.00 | 0.00 | 49 | 1012.6 |
| 20260510200920 | 92 | 70 | 4.0 | 10.0 | 0.00 | 0.00 | 0.00 | 51 | 1012.7 |
| 20260510200421 | 91 | 144 | 3.0 | 10.0 | 0.00 | 0.00 | 0.00 | 50 | 1012.8 |
| 20260510195920 | 91 | 117 | 4.0 | 13.0 | 0.00 | 0.00 | 0.00 | 53 | 1012.8 |
| 20260510195421 | 91 | 128 | 5.0 | 13.0 | 0.00 | 0.00 | 0.00 | 54 | 1013.0 |
| 20260510194921 | 91 | 78 | 4.0 | 12.0 | 0.00 | 0.00 | 0.00 | 53 | 1012.9 |
| 20260510194420 | 91 | 101 | 3.0 | 9.0 | 0.00 | 0.00 | 0.00 | 53 | 1013.0 |
| 20260510193920 | 90 | 114 | 3.0 | 9.0 | 0.00 | 0.00 | 0.00 | 56 | 1013.1 |
| 20260510193425 | 90 | 74 | 5.0 | 12.0 | 0.00 | 0.00 | 0.00 | 54 | 1013.1 |
| 20260510193421 | 89 | 139 | 5.0 | 12.0 | 0.00 | 0.00 | 0.00 | 55 | 1013.1 |
| 20260510192425 | 90 | 88 | 5.0 | 13.0 | 0.00 | 0.00 | 0.00 | 54 | 1013.1 |
| 20260510192421 | 90 | 104 | 5.0 | 13.0 | 0.00 | 0.00 | 0.00 | 55 | 1013.1 |
| 20260510191420 | 90 | 146 | 5.0 | 13.0 | 0.00 | 0.00 | 0.00 | 54 | 1013.2 |
| 20260510190925 | 89 | 127 | 4.0 | 9.0 | 0.00 | 0.00 | 0.00 | 55 | 1013.3 |
| 20260510190921 | 90 | 51 | 4.0 | 9.0 | 0.00 | 0.00 | 0.00 | 55 | 1013.2 |
| 20260510185921 | 89 | 113 | 4.0 | 12.0 | 0.00 | 0.00 | 0.00 | 58 | 1013.4 |
| 20260510185424 | 89 | 40 | 4.0 | 13.0 | 0.00 | 0.00 | 0.00 | 56 | 1013.4 |
| 20260510185420 | 89 | 19 | 5.0 | 13.0 | 0.00 | 0.00 | 0.00 | 56 | 1013.4 |
| 20260510184421 | 88 | 89 | 5.0 | 13.0 | 0.00 | 0.00 | 0.00 | 58 | 1013.6 |
| 20260510183920 | 87 | 97 | 6.0 | 13.0 | 0.00 | 0.00 | 0.00 | 58 | 1013.6 |
| 20260510183425 | 88 | 106 | 4.0 | 10.0 | 0.00 | 0.00 | 0.00 | 59 | 1013.7 |
| 20260510183421 | 89 | 28 | 4.0 | 10.0 | 0.00 | 0.00 | 0.00 | 56 | 1013.6 |
| 20260510182425 | 88 | 34 | 5.0 | 12.0 | 0.00 | 0.00 | 0.00 | 58 | 1014.0 |
| 20260510182421 | 88 | 90 | 5.0 | 12.0 | 0.00 | 0.00 | 0.00 | 59 | 1013.8 |
| 20260510181421 | 89 | 107 | 4.0 | 11.0 | 0.00 | 0.00 | 0.00 | 57 | 1014.1 |
| 20260510180920 | 89 | 121 | 3.0 | 11.0 | 0.00 | 0.00 | 0.00 | 58 | 1014.1 |
| 20260510180420 | 89 | 130 | 4.0 | 11.0 | 0.00 | 0.00 | 0.00 | 58 | 1014.1 |
| 20260510175921 | 89 | 111 | 4.0 | 11.0 | 0.00 | 0.00 | 0.00 | 58 | 1014.1 |
| 20260510175421 | 88 | 77 | 3.0 | 11.0 | 0.00 | 0.00 | 0.00 | 59 | 1014.2 |
| 20260510174921 | 88 | 107 | 3.0 | 10.0 | 0.00 | 0.00 | 0.00 | 59 | 1014.3 |
| 20260510174424 | 88 | 104 | 4.0 | 13.0 | 0.00 | 0.00 | 0.00 | 60 | 1014.3 |
| 20260510174420 | 88 | 90 | 4.0 | 13.0 | 0.00 | 0.00 | 0.00 | 59 | 1014.3 |
| 20260510173418 | 88 | 30 | 3.0 | 10.0 | 0.00 | 0.00 | 0.00 | 61 | 1014.2 |
| 20260510172919 | 87 | 28 | 3.0 | 9.0 | 0.00 | 0.00 | 0.00 | 60 | 1014.2 |
| 20260510172419 | 87 | 89 | 4.0 | 9.0 | 0.00 | 0.00 | 0.00 | 61 | 1014.3 |
| 20260510171918 | 87 | 80 | 5.0 | 11.0 | 0.00 | 0.00 | 0.00 | 62 | 1014.2 |
| 20260510171422 | 86 | 90 | 3.0 | 10.0 | 0.00 | 0.00 | 0.00 | 61 | 1014.2 |
| 20260510171418 | 86 | 18 | 5.0 | 11.0 | 0.00 | 0.00 | 0.00 | 62 | 1014.1 |
| 20260510170418 | 87 | 117 | 3.0 | 11.0 | 0.00 | 0.00 | 0.00 | 62 | 1014.2 |
| 20260510165919 | 87 | 108 | 3.0 | 11.0 | 0.00 | 0.00 | 0.00 | 60 | 1014.2 |
| 20260510165418 | 87 | 140 | 3.0 | 8.0 | 0.00 | 0.00 | 0.00 | 61 | 1014.2 |
| 20260510164919 | 86 | 136 | 3.0 | 8.0 | 0.00 | 0.00 | 0.00 | 62 | 1014.0 |
| 20260510164423 | 86 | 108 | 3.0 | 8.0 | 0.00 | 0.00 | 0.00 | 62 | 1014.0 |
| 20260510164418 | 86 | 153 | 3.0 | 8.0 | 0.00 | 0.00 | 0.00 | 62 | 1014.0 |
| 20260510163417 | 86 | 59 | 3.0 | 8.0 | 0.00 | 0.00 | 0.00 | 62 | 1013.9 |
| 20260510162916 | 86 | 163 | 3.0 | 11.0 | 0.00 | 0.00 | 0.00 | 61 | 1013.9 |
| 20260510162417 | 86 | 113 | 3.0 | 11.0 | 0.00 | 0.00 | 0.00 | 61 | 1014.0 |
| 20260510161922 | 85 | 136 | 2.0 | 6.0 | 0.00 | 0.00 | 0.00 | 65 | 1013.9 |
| 20260510161918 | 85 | 79 | 2.0 | 8.0 | 0.00 | 0.00 | 0.00 | 63 | 1013.9 |
| 20260510160920 | 85 | 193 | 3.0 | 7.0 | 0.00 | 0.00 | 0.00 | 65 | 1013.8 |
| 20260510160916 | 84 | 123 | 3.0 | 6.0 | 0.00 | 0.00 | 0.00 | 65 | 1013.8 |
| 20260510155920 | 84 | 113 | 2.0 | 7.0 | 0.00 | 0.00 | 0.00 | 66 | 1013.8 |
| 20260510155916 | 84 | 132 | 3.0 | 7.0 | 0.00 | 0.00 | 0.00 | 65 | 1013.9 |
| 20260510155519 | 83 | 126 | 2.0 | 6.0 | 0.00 | 0.00 | 0.00 | 67 | 1013.7 |
| 20260510155019 | 82 | 120 | 1.0 | 6.0 | 0.00 | 0.00 | 0.00 | 69 | 1013.7 |
| 20260510153915 | 82 | 115 | 2.0 | 6.0 | 0.00 | 0.00 | 0.00 | 70 | 1013.7 |
| 20260510153418 | 81 | 157 | 2.0 | 9.0 | 0.00 | 0.00 | 0.00 | 70 | 1013.6 |
| 20260510153414 | 81 | 157 | 3.0 | 7.0 | 0.00 | 0.00 | 0.00 | 71 | 1013.6 |
| 20260510152415 | 81 | 161 | 2.0 | 9.0 | 0.00 | 0.00 | 0.00 | 70 | 1013.5 |
| 20260510151915 | 80 | 184 | 2.0 | 5.0 | 0.00 | 0.00 | 0.00 | 72 | 1013.5 |
| 20260510151414 | 80 | 151 | 2.0 | 5.0 | 0.00 | 0.00 | 0.00 | 72 | 1013.4 |
| 20260510150915 | 79 | 146 | 2.0 | 7.0 | 0.00 | 0.00 | 0.00 | 74 | 1013.5 |
| 20260510150419 | 79 | 138 | 3.0 | 7.0 | 0.00 | 0.00 | 0.00 | 73 | 1013.4 |
| 20260510150414 | 79 | 162 | 3.0 | 7.0 | 0.00 | 0.00 | 0.00 | 74 | 1013.5 |
| 20260510150019 | 79 | 165 | 2.0 | 7.0 | 0.00 | 0.00 | 0.00 | 74 | 1013.4 |
| 20260510145519 | 78 | 155 | 2.0 | 6.0 | 0.00 | 0.00 | 0.00 | 76 | 1013.3 |
| 20260510144416 | 77 | 164 | 4.0 | 7.0 | 0.00 | 0.00 | 0.00 | 77 | 1013.3 |
| 20260510144412 | 78 | 152 | 3.0 | 7.0 | 0.00 | 0.00 | 0.00 | 76 | 1013.3 |
| 20260510143413 | 77 | 190 | 4.0 | 8.0 | 0.00 | 0.00 | 0.00 | 78 | 1013.2 |
| 20260510142912 | 77 | 164 | 4.0 | 8.0 | 0.00 | 0.00 | 0.00 | 78 | 1013.2 |
| 20260510142413 | 76 | 164 | 3.0 | 6.0 | 0.00 | 0.00 | 0.00 | 78 | 1013.2 |
| 20260510141910 | 76 | 149 | 3.0 | 8.0 | 0.00 | 0.00 | 0.00 | 79 | 1013.2 |
| 20260510141411 | 76 | 118 | 3.0 | 8.0 | 0.00 | 0.00 | 0.00 | 79 | 1013.2 |
| 20260510140915 | 75 | 200 | 3.0 | 6.0 | 0.00 | 0.00 | 0.00 | 79 | 1013.1 |
| 20260510140910 | 76 | 200 | 3.0 | 7.0 | 0.00 | 0.00 | 0.00 | 79 | 1013.2 |
| 20260510135909 | 75 | 248 | 3.0 | 6.0 | 0.00 | 0.00 | 0.00 | 79 | 1013.2 |
| 20260510135409 | 75 | 200 | 2.0 | 5.0 | 0.00 | 0.00 | 0.00 | 79 | 1013.2 |
| 20260510134907 | 75 | 180 | 1.0 | 5.0 | 0.00 | 0.00 | 0.00 | 79 | 1013.2 |
| 20260510134406 | 75 | 160 | 1.0 | 4.0 | 0.00 | 0.00 | 0.00 | 78 | 1013.2 |
| 20260510133907 | 75 | 138 | 0.0 | 1.0 | 0.00 | 0.00 | 0.00 | 79 | 1013.1 |
| 20260510133407 | 74 | 150 | 0.0 | 1.0 | 0.00 | 0.00 | 0.00 | 80 | 1013.1 |
| 20260510132907 | 74 | 150 | 0.0 | 2.0 | 0.00 | 0.00 | 0.00 | 81 | 1013.1 |
| 20260510132408 | 73 | 150 | 0.0 | 4.0 | 0.00 | 0.00 | 0.00 | 81 | 1012.9 |
| 20260510131906 | 73 | 150 | 0.0 | 4.0 | 0.00 | 0.00 | 0.00 | 81 | 1012.9 |
| 20260510131405 | 73 | 127 | 0.0 | 2.0 | 0.00 | 0.00 | 0.00 | 81 | 1012.9 |
| 20260510130905 | 72 | 223 | 0.0 | 2.0 | 0.00 | 0.00 | 0.00 | 81 | 1012.8 |
| 20260510130405 | 72 | 128 | 0.0 | 1.0 | 0.00 | 0.00 | 0.00 | 82 | 1012.7 |
| 20260510125905 | 71 | 129 | 0.0 | 1.0 | 0.00 | 0.00 | 0.00 | 83 | 1012.7 |
| 20260510125405 | 71 | 128 | 0.0 | 1.0 | 0.00 | 0.00 | 0.00 | 84 | 1012.6 |
| 20260510124904 | 70 | 129 | 0.0 | 1.0 | 0.00 | 0.00 | 0.00 | 85 | 1012.5 |
| 20260510124405 | 69 | 128 | 0.0 | 1.0 | 0.00 | 0.00 | 0.00 | 86 | 1012.5 |
| 20260510123903 | 68 | 128 | 0.0 | 1.0 | 0.00 | 0.00 | 0.00 | 87 | 1012.5 |
| 20260510123400 | 68 | 128 | 0.0 | 1.0 | 0.00 | 0.00 | 0.00 | 87 | 1012.5 |
| 20260510122900 | 68 | 129 | 0.0 | 1.0 | 0.00 | 0.00 | 0.00 | 86 | 1012.6 |
| 20260510122400 | 68 | 128 | 0.0 | 0.0 | 0.00 | 0.00 | 0.00 | 86 | 1012.5 |
| 20260510121900 | 68 | 128 | 0.0 | 0.0 | 0.00 | 0.00 | 0.00 | 86 | 1012.4 |
| 20260510121401 | 68 | 129 | 0.0 | 0.0 | 0.00 | 0.00 | 0.00 | 86 | 1012.4 |
| 20260510120900 | 68 | 129 | 0.0 | 0.0 | 0.00 | 0.00 | 0.00 | 86 | 1012.4 |
| 20260510120400 | 68 | 129 | 0.0 | 1.0 | 0.00 | 0.00 | 0.00 | 85 | 1012.4 |
| 20260510115902 | 68 | 128 | 0.0 | 1.0 | 0.00 | 0.00 | 0.00 | 85 | 1012.3 |
| 20260510115858 | 68 | 129 | 0.0 | 2.0 | 0.00 | 0.00 | 0.00 | 85 | 1012.3 |
| 20260510114858 | 68 | 129 | 0.0 | 2.0 | 0.00 | 0.00 | 0.00 | 85 | 1012.2 |
| 20260510114402 | 68 | 128 | 0.0 | 1.0 | 0.00 | 0.00 | 0.00 | 84 | 1012.3 |
| 20260510114358 | 68 | 128 | 0.0 | 1.0 | 0.00 | 0.00 | 0.00 | 84 | 1012.3 |
| 20260510114003 | 68 | 129 | 0.0 | 1.0 | 0.00 | 0.00 | 0.00 | 84 | 1012.3 |
| 20260510112858 | 68 | 129 | 0.0 | 1.0 | 0.00 | 0.00 | 0.00 | 83 | 1012.3 |
| 20260510112358 | 68 | 128 | 0.0 | 2.0 | 0.00 | 0.00 | 0.00 | 83 | 1012.2 |
| 20260510111858 | 68 | 129 | 0.0 | 2.0 | 0.00 | 0.00 | 0.00 | 83 | 1012.2 |
| 20260510111358 | 69 | 130 | 0.0 | 2.0 | 0.00 | 0.00 | 0.00 | 83 | 1012.2 |
| 20260510110858 | 69 | 133 | 0.0 | 2.0 | 0.00 | 0.00 | 0.00 | 83 | 1012.2 |
| 20260510110356 | 69 | 134 | 0.0 | 2.0 | 0.00 | 0.00 | 0.00 | 82 | 1012.3 |
| 20260510105900 | 69 | 133 | 0.0 | 1.0 | 0.00 | 0.00 | 0.00 | 82 | 1012.3 |
| 20260510105856 | 69 | 133 | 0.0 | 1.0 | 0.00 | 0.00 | 0.00 | 82 | 1012.3 |
| 20260510104901 | 69 | 133 | 0.0 | 1.0 | 0.00 | 0.00 | 0.00 | 82 | 1012.3 |
| 20260510104857 | 69 | 134 | 0.0 | 1.0 | 0.00 | 0.00 | 0.00 | 82 | 1012.3 |
| 20260510103857 | 69 | 134 | 0.0 | 2.0 | 0.00 | 0.00 | 0.00 | 82 | 1012.3 |
| 20260510103356 | 69 | 134 | 0.0 | 2.0 | 0.00 | 0.00 | 0.00 | 82 | 1012.3 |
| 20260510102856 | 69 | 134 | 0.0 | 1.0 | 0.00 | 0.00 | 0.00 | 82 | 1012.3 |
| 20260510102357 | 69 | 134 | 0.0 | 1.0 | 0.00 | 0.00 | 0.00 | 82 | 1012.3 |
| 20260510101855 | 69 | 134 | 0.0 | 1.0 | 0.00 | 0.00 | 0.00 | 82 | 1012.3 |
| 20260510101354 | 69 | 134 | 0.0 | 0.0 | 0.00 | 0.00 | 0.00 | 81 | 1012.3 |
| 20260510100854 | 69 | 133 | 0.0 | 2.0 | 0.00 | 0.00 | 0.00 | 81 | 1012.3 |
| 20260510100354 | 69 | 134 | 0.0 | 2.0 | 0.00 | 0.00 | 0.00 | 81 | 1012.3 |
| 20260510095854 | 70 | 134 | 0.0 | 1.0 | 0.00 | 0.00 | 0.00 | 81 | 1012.2 |
| 20260510095354 | 70 | 134 | 0.0 | 1.0 | 0.00 | 0.00 | 0.00 | 80 | 1012.2 |
| 20260510094854 | 70 | 134 | 1.0 | 2.0 | 0.00 | 0.00 | 0.00 | 80 | 1012.1 |
| 20260510094354 | 70 | 134 | 1.0 | 2.0 | 0.00 | 0.00 | 0.00 | 80 | 1012.3 |
| 20260510093854 | 70 | 134 | 0.0 | 1.0 | 0.00 | 0.00 | 0.00 | 80 | 1012.1 |
| 20260510093354 | 70 | 134 | 0.0 | 1.0 | 0.00 | 0.00 | 0.00 | 80 | 1012.1 |
| 20260510092854 | 70 | 134 | 0.0 | 1.0 | 0.00 | 0.00 | 0.00 | 80 | 1012.0 |
| 20260510092352 | 70 | 134 | 0.0 | 2.0 | 0.00 | 0.00 | 0.00 | 80 | 1011.8 |
| 20260510091852 | 70 | 134 | 0.0 | 2.0 | 0.00 | 0.00 | 0.00 | 80 | 1011.7 |
| 20260510091353 | 70 | 134 | 0.0 | 2.0 | 0.00 | 0.00 | 0.00 | 80 | 1011.7 |
| 20260510090852 | 70 | 160 | 0.0 | 2.0 | 0.00 | 0.00 | 0.00 | 80 | 1011.7 |
| 20260510090350 | 70 | 160 | 0.0 | 2.0 | 0.00 | 0.00 | 0.00 | 80 | 1012.0 |
| 20260510085855 | 71 | 160 | 0.0 | 0.0 | 0.00 | 0.00 | 0.00 | 80 | 1011.8 |
| 20260510085851 | 70 | 160 | 0.0 | 0.0 | 0.00 | 0.00 | 0.00 | 80 | 1012.0 |
| 20260510085407 | 71 | 160 | 0.0 | 0.0 | 0.00 | 0.00 | 0.00 | 79 | 1011.7 |
| 20260510084348 | 71 | 160 | 0.0 | 1.0 | 0.00 | 0.00 | 0.00 | 79 | 1011.7 |
| 20260510083848 | 71 | 160 | 0.0 | 1.0 | 0.00 | 0.00 | 0.00 | 79 | 1011.8 |
| 20260510083348 | 71 | 160 | 0.0 | 0.0 | 0.00 | 0.00 | 0.00 | 79 | 1011.7 |
| 20260510082846 | 71 | 160 | 0.0 | 0.0 | 0.00 | 0.00 | 0.00 | 78 | 1011.7 |
| 20260510082344 | 72 | 160 | 0.0 | 0.0 | 0.00 | 0.00 | 0.00 | 78 | 1011.8 |
| 20260510081844 | 72 | 160 | 0.0 | 0.0 | 0.00 | 0.00 | 0.00 | 78 | 1011.8 |
| 20260510081345 | 72 | 160 | 0.0 | 0.0 | 0.00 | 0.00 | 0.00 | 78 | 1011.8 |
| 20260510080844 | 72 | 160 | 0.0 | 0.0 | 0.00 | 0.00 | 0.00 | 77 | 1011.7 |
| 20260510080345 | 72 | 160 | 0.0 | 0.0 | 0.00 | 0.00 | 0.00 | 77 | 1011.7 |
| 20260510075844 | 73 | 160 | 0.0 | 0.0 | 0.00 | 0.00 | 0.00 | 77 | 1011.6 |
| 20260510075348 | 73 | 160 | 0.0 | 1.0 | 0.00 | 0.00 | 0.00 | 76 | 1011.5 |
| 20260510075344 | 73 | 160 | 0.0 | 1.0 | 0.00 | 0.00 | 0.00 | 77 | 1011.6 |
| 20260510074342 | 73 | 160 | 0.0 | 0.0 | 0.00 | 0.00 | 0.00 | 76 | 1011.5 |
| 20260510073847 | 74 | 160 | 0.0 | 1.0 | 0.00 | 0.00 | 0.00 | 75 | 1011.6 |
| 20260510073843 | 73 | 160 | 0.0 | 1.0 | 0.00 | 0.00 | 0.00 | 75 | 1011.5 |
| 20260510072843 | 74 | 160 | 0.0 | 4.0 | 0.00 | 0.00 | 0.00 | 75 | 1011.6 |
| 20260510072342 | 74 | 160 | 1.0 | 4.0 | 0.00 | 0.00 | 0.00 | 75 | 1011.7 |
| 20260510071842 | 74 | 159 | 1.0 | 4.0 | 0.00 | 0.00 | 0.00 | 75 | 1011.7 |
| 20260510071342 | 74 | 167 | 1.0 | 5.0 | 0.00 | 0.00 | 0.00 | 75 | 1011.8 |
| 20260510070841 | 74 | 174 | 1.0 | 5.0 | 0.00 | 0.00 | 0.00 | 75 | 1011.7 |
| 20260510070448 | 75 | 153 | 1.0 | 4.0 | 0.00 | 0.00 | 0.00 | 74 | 1011.7 |
| 20260510070346 | 74 | 154 | 1.0 | 4.0 | 0.00 | 0.00 | 0.00 | 74 | 1011.7 |
| 20260510070342 | 74 | 145 | 0.0 | 4.0 | 0.00 | 0.00 | 0.00 | 74 | 1011.8 |
| 20260510064844 | 75 | 158 | 0.0 | 2.0 | 0.00 | 0.00 | 0.00 | 74 | 1011.7 |
| 20260510064840 | 75 | 135 | 1.0 | 5.0 | 0.00 | 0.00 | 0.00 | 74 | 1011.8 |
| 20260510063838 | 75 | 122 | 1.0 | 5.0 | 0.00 | 0.00 | 0.00 | 74 | 1012.0 |
| 20260510063342 | 75 | 119 | 1.0 | 5.0 | 0.00 | 0.00 | 0.00 | 74 | 1012.0 |
| 20260510063338 | 75 | 115 | 0.0 | 2.0 | 0.00 | 0.00 | 0.00 | 74 | 1011.8 |
| 20260510062337 | 75 | 205 | 1.0 | 5.0 | 0.00 | 0.00 | 0.00 | 73 | 1012.0 |
| 20260510061841 | 76 | 141 | 1.0 | 4.0 | 0.00 | 0.00 | 0.00 | 73 | 1012.0 |
| 20260510061837 | 76 | 125 | 1.0 | 4.0 | 0.00 | 0.00 | 0.00 | 73 | 1012.0 |
| 20260510060836 | 76 | 121 | 1.0 | 4.0 | 0.00 | 0.00 | 0.00 | 73 | 1012.0 |
| 20260510060336 | 76 | 132 | 1.0 | 4.0 | 0.00 | 0.00 | 0.00 | 73 | 1012.0 |
| 20260510055836 | 76 | 140 | 1.0 | 5.0 | 0.00 | 0.00 | 0.00 | 73 | 1012.0 |
| 20260510055337 | 76 | 129 | 1.0 | 6.0 | 0.00 | 0.00 | 0.00 | 73 | 1012.0 |
| 20260510054836 | 76 | 117 | 1.0 | 6.0 | 0.00 | 0.00 | 0.00 | 72 | 1011.8 |
| 20260510054336 | 77 | 126 | 1.0 | 6.0 | 0.00 | 0.00 | 0.00 | 72 | 1011.8 |
| 20260510053834 | 77 | 130 | 1.0 | 6.0 | 0.00 | 0.00 | 0.00 | 72 | 1011.6 |
| 20260510053334 | 77 | 150 | 2.0 | 8.0 | 0.00 | 0.00 | 0.00 | 72 | 1011.5 |
| 20260510052835 | 77 | 148 | 3.0 | 8.0 | 0.00 | 0.00 | 0.00 | 72 | 1011.4 |
| 20260510052332 | 77 | 137 | 3.0 | 6.0 | 0.00 | 0.00 | 0.00 | 71 | 1011.3 |
| 20260510051833 | 78 | 171 | 3.0 | 8.0 | 0.00 | 0.00 | 0.00 | 71 | 1011.3 |
| 20260510051336 | 78 | 166 | 1.0 | 6.0 | 0.00 | 0.00 | 0.00 | 71 | 1011.3 |
| 20260510051332 | 78 | 142 | 2.0 | 8.0 | 0.00 | 0.00 | 0.00 | 71 | 1011.3 |
| 20260510050332 | 78 | 162 | 1.0 | 7.0 | 0.00 | 0.00 | 0.00 | 71 | 1011.3 |
| 20260510050328 | 78 | 128 | 2.0 | 7.0 | 0.00 | 0.00 | 0.01 | 70 | 1011.3 |
| 20260510045329 | 78 | 111 | 2.0 | 7.0 | 0.00 | 0.00 | 0.01 | 69 | 1011.2 |
| 20260510045325 | 79 | 123 | 2.0 | 7.0 | 0.00 | 0.00 | 0.01 | 69 | 1011.2 |
| 20260510044324 | 79 | 130 | 2.0 | 8.0 | 0.00 | 0.00 | 0.01 | 69 | 1011.1 |
| 20260510043823 | 79 | 143 | 2.0 | 8.0 | 0.00 | 0.00 | 0.01 | 68 | 1011.2 |
| 20260510043325 | 79 | 120 | 1.0 | 7.0 | 0.00 | 0.00 | 0.01 | 67 | 1011.1 |
| 20260510043321 | 79 | 113 | 1.0 | 7.0 | 0.00 | 0.00 | 0.01 | 67 | 1011.1 |
| 20260510042320 | 80 | 107 | 1.0 | 6.0 | 0.00 | 0.00 | 0.01 | 66 | 1011.1 |
| 20260510041824 | 80 | 137 | 1.0 | 6.0 | 0.00 | 0.00 | 0.01 | 66 | 1011.1 |
| 20260510041820 | 80 | 126 | 0.0 | 2.0 | 0.00 | 0.00 | 0.01 | 66 | 1011.0 |
| 20260510040819 | 80 | 130 | 1.0 | 4.0 | 0.00 | 0.00 | 0.01 | 65 | 1011.0 |
| 20260510040318 | 80 | 130 | 1.0 | 4.0 | 0.00 | 0.00 | 0.01 | 65 | 1010.9 |
| 20260510035818 | 80 | 151 | 1.0 | 4.0 | 0.00 | 0.00 | 0.01 | 65 | 1010.9 |
| 20260510035318 | 80 | 117 | 1.0 | 4.0 | 0.00 | 0.00 | 0.01 | 65 | 1010.9 |
| 20260510034818 | 81 | 127 | 1.0 | 4.0 | 0.00 | 0.00 | 0.01 | 65 | 1010.9 |
| 20260510034319 | 81 | 120 | 1.0 | 6.0 | 0.00 | 0.00 | 0.01 | 65 | 1010.8 |
| 20260510034315 | 81 | 114 | 1.0 | 4.0 | 0.00 | 0.00 | 0.01 | 64 | 1010.8 |
| 20260510033918 | 81 | 123 | 1.0 | 6.0 | 0.00 | 0.00 | 0.01 | 64 | 1010.8 |
| 20260510032810 | 81 | 111 | 0.0 | 4.0 | 0.00 | 0.00 | 0.01 | 64 | 1010.8 |
| 20260510032310 | 81 | 109 | 0.0 | 4.0 | 0.00 | 0.00 | 0.01 | 64 | 1010.7 |
| 20260510031811 | 81 | 111 | 0.0 | 3.0 | 0.00 | 0.00 | 0.01 | 64 | 1010.7 |
| 20260510031310 | 81 | 111 | 0.0 | 3.0 | 0.00 | 0.00 | 0.01 | 63 | 1010.6 |
| 20260510030808 | 82 | 148 | 1.0 | 3.0 | 0.00 | 0.00 | 0.01 | 63 | 1010.6 |
| 20260510030309 | 82 | 144 | 1.0 | 4.0 | 0.00 | 0.00 | 0.01 | 62 | 1010.4 |
| 20260510025806 | 82 | 144 | 1.0 | 4.0 | 0.00 | 0.00 | 0.01 | 62 | 1010.5 |
| 20260510025306 | 82 | 123 | 1.0 | 5.0 | 0.00 | 0.00 | 0.01 | 62 | 1010.5 |
| 20260510024808 | 82 | 119 | 1.0 | 5.0 | 0.00 | 0.00 | 0.01 | 63 | 1010.4 |
| 20260510024804 | 82 | 107 | 1.0 | 5.0 | 0.00 | 0.00 | 0.01 | 62 | 1010.4 |
| 20260510023804 | 82 | 126 | 1.0 | 5.0 | 0.00 | 0.00 | 0.01 | 63 | 1010.3 |
| 20260510023304 | 83 | 141 | 1.0 | 9.0 | 0.00 | 0.00 | 0.01 | 62 | 1010.2 |
| 20260510022805 | 83 | 114 | 1.0 | 9.0 | 0.00 | 0.00 | 0.01 | 62 | 1010.2 |
| 20260510022308 | 83 | 115 | 1.0 | 5.0 | 0.00 | 0.00 | 0.01 | 62 | 1010.1 |
| 20260510022306 | 83 | 96 | 1.0 | 5.0 | 0.00 | 0.00 | 0.01 | 62 | 1010.1 |
| 20260510021308 | 83 | 126 | 1.0 | 6.0 | 0.00 | 0.00 | 0.01 | 62 | 1009.9 |
| 20260510021304 | 83 | 118 | 1.0 | 5.0 | 0.00 | 0.00 | 0.01 | 62 | 1010.0 |
| 20260510020304 | 83 | 122 | 1.0 | 6.0 | 0.00 | 0.00 | 0.01 | 61 | 1009.8 |
| 20260510015803 | 84 | 130 | 1.0 | 4.0 | 0.00 | 0.00 | 0.01 | 61 | 1009.8 |
| 20260510015306 | 84 | 135 | 1.0 | 4.0 | 0.00 | 0.00 | 0.01 | 60 | 1009.7 |
| 20260510014803 | 84 | 135 | 0.0 | 2.0 | 0.00 | 0.00 | 0.01 | 59 | 1009.6 |
| 20260510014303 | 84 | 135 | 0.0 | 1.0 | 0.00 | 0.00 | 0.01 | 58 | 1009.5 |
| 20260510013802 | 85 | 135 | 0.0 | 2.0 | 0.00 | 0.00 | 0.01 | 58 | 1009.4 |
| 20260510013303 | 85 | 135 | 0.0 | 2.0 | 0.00 | 0.00 | 0.01 | 57 | 1009.2 |
| 20260510012803 | 85 | 135 | 0.0 | 2.0 | 0.00 | 0.00 | 0.01 | 57 | 1009.2 |
| 20260510012306 | 86 | 135 | 0.0 | 4.0 | 0.00 | 0.00 | 0.01 | 56 | 1009.1 |
| 20260510011803 | 86 | 135 | 1.0 | 5.0 | 0.00 | 0.00 | 0.01 | 55 | 1009.1 |
| 20260510011303 | 87 | 134 | 1.0 | 5.0 | 0.00 | 0.00 | 0.01 | 55 | 1009.0 |
| 20260510010806 | 88 | 138 | 1.0 | 5.0 | 0.00 | 0.00 | 0.01 | 53 | 1008.8 |
| 20260510010802 | 87 | 136 | 0.0 | 5.0 | 0.00 | 0.00 | 0.01 | 54 | 1008.9 |
| 20260510005802 | 88 | 143 | 2.0 | 5.0 | 0.00 | 0.00 | 0.01 | 53 | 1008.8 |
| 20260510005307 | 89 | 212 | 3.0 | 9.0 | 0.00 | 0.00 | 0.01 | 53 | 1008.7 |
| 20260510004303 | 89 | 208 | 3.0 | 9.0 | 0.00 | 0.00 | 0.01 | 52 | 1008.6 |
| 20260510003803 | 89 | 88 | 3.0 | 7.0 | 0.00 | 0.00 | 0.01 | 53 | 1008.4 |
| 20260510003302 | 89 | 145 | 3.0 | 7.0 | 0.00 | 0.00 | 0.01 | 53 | 1008.3 |
| 20260510002802 | 90 | 160 | 3.0 | 7.0 | 0.00 | 0.00 | 0.01 | 52 | 1008.3 |
| 20260510002307 | 90 | 163 | 3.0 | 10.0 | 0.00 | 0.00 | 0.01 | 51 | 1008.3 |
| 20260510002301 | 90 | 148 | 3.0 | 8.0 | 0.00 | 0.00 | 0.01 | 52 | 1008.2 |
| 20260510001301 | 91 | 148 | 4.0 | 10.0 | 0.00 | 0.00 | 0.01 | 51 | 1008.4 |
| 20260510000801 | 91 | 168 | 4.0 | 11.0 | 0.00 | 0.00 | 0.01 | 51 | 1008.4 |
| 20260510000258 | 91 | 177 | 5.0 | 11.0 | 0.00 | 0.00 | 0.01 | 50 | 1008.4 |
| 20260509235759 | 92 | 158 | 5.0 | 9.0 | 0.00 | 0.00 | 0.01 | 49 | 1008.3 |
| 20260509235256 | 92 | 108 | 4.0 | 9.0 | 0.00 | 0.00 | 0.01 | 48 | 1008.4 |
| 20260509234757 | 93 | 154 | 2.0 | 8.0 | 0.00 | 0.00 | 0.01 | 48 | 1008.4 |
| 20260509234257 | 93 | 173 | 3.0 | 8.0 | 0.00 | 0.00 | 0.01 | 47 | 1008.6 |
| 20260509233757 | 93 | 133 | 3.0 | 8.0 | 0.00 | 0.00 | 0.01 | 47 | 1008.6 |
| 20260509233256 | 94 | 137 | 2.0 | 7.0 | 0.00 | 0.00 | 0.01 | 46 | 1008.4 |
| 20260509232757 | 94 | 198 | 3.0 | 8.0 | 0.00 | 0.00 | 0.01 | 46 | 1008.4 |
| 20260509232256 | 94 | 134 | 3.0 | 8.0 | 0.00 | 0.00 | 0.01 | 46 | 1008.4 |
| 20260509231756 | 95 | 155 | 2.0 | 7.0 | 0.00 | 0.00 | 0.01 | 44 | 1008.4 |
| 20260509231301 | 95 | 167 | 1.0 | 5.0 | 0.00 | 0.00 | 0.01 | 45 | 1008.4 |
| 20260509231257 | 95 | 122 | 1.0 | 5.0 | 0.00 | 0.00 | 0.01 | 45 | 1008.4 |
| 20260509230257 | 95 | 131 | 1.0 | 5.0 | 0.00 | 0.00 | 0.01 | 45 | 1008.3 |
| 20260509225756 | 94 | 120 | 2.0 | 9.0 | 0.00 | 0.00 | 0.01 | 45 | 1008.4 |
| 20260509225257 | 94 | 124 | 2.0 | 9.0 | 0.00 | 0.00 | 0.01 | 47 | 1008.4 |
| 20260509224756 | 94 | 194 | 2.0 | 5.0 | 0.00 | 0.00 | 0.01 | 45 | 1008.3 |
| 20260509224257 | 93 | 106 | 2.0 | 5.0 | 0.00 | 0.00 | 0.01 | 47 | 1008.4 |
| 20260509223757 | 93 | 194 | 2.0 | 6.0 | 0.00 | 0.00 | 0.01 | 47 | 1008.4 |
| 20260509223255 | 93 | 215 | 1.0 | 6.0 | 0.00 | 0.00 | 0.01 | 49 | 1008.3 |
| 20260509222755 | 93 | 171 | 1.0 | 5.0 | 0.00 | 0.00 | 0.01 | 48 | 1008.4 |